Flag for Romania Weather past 2 weeks in Oradea, Romania

Now
37 °F

Passing clouds.


Feels Like: 34 °F
Forecast: 37 / 59 °F
Wind: 5 mph from East

Location: Oradea Airport

Current Time: Apr 21, 2015 at 5:36:29 AM

Latest Report: Apr 21, 2015 at 5:00 AM


Visibility: N/A

Pressure: 30.07 "Hg

Humidity: 87%

Dew point: 34 °F

Location of OradeaLocation

Historic Weather in Oradea — Graph

°F

Oradea temperature yesterday

Maximum temperature yesterday: 59 °F (at 2:00 PM)
Minimum temperature yesterday: 36 °F (at 5:00 AM)
Average temperature yesterday: 49 °F

Past Weeks' High & Low Weather Summary

 TemperatureHumidityPressure
High79 °F (Apr 16, 3:00 PM)94% (Apr 17, 10:00 PM)30.42 "Hg (Apr 17, 10:00 PM)
Low28 °F (Apr 19, 6:30 AM)13% (Apr 9, 5:30 PM)29.77 "Hg (Apr 17, 6:00 PM)
Average52 °F51%30.13 "Hg
* Reported Apr 6 4:00 AM — Apr 21 4:00 AM, Oradea, Weather by CustomWeather, © 2015

Note: Actual official high and low records may vary slightly from our data, if they occured in-between our weather recording intervals... More about our weather records

Advertising

Oradea weather history for previous 24 hours

 ConditionsComfort  
Time TempWeatherWind HumidityBarometerVisibility
4:00 AM
Tue, Apr 21
39 °FPassing clouds.5 mph87%30.04 "HgN/A
3:00 AM39 °FPassing clouds.1 mph81%30.04 "HgN/A
2:00 AM41 °FPassing clouds.5 mph76%30.04 "HgN/A
1:00 AM43 °FPassing clouds.3 mph76%30.01 "HgN/A
12:00 AM46 °FPassing clouds.3 mph62%30.01 "HgN/A
11:30 PM
Mon, Apr 20
48 °FPassing clouds.6 mph58%30.01 "HgN/A
11:00 PM48 °FPartly cloudy.6 mph58%30.01 "HgN/A
10:30 PM48 °FPassing clouds.5 mph62%30.01 "HgN/A
10:00 PM48 °FPartly cloudy.7 mph62%29.98 "HgN/A
9:30 PM50 °FSprinkles. Passing clouds.8 mph58%29.98 "HgN/A
9:00 PM50 °FPassing clouds.13 mph54%29.98 "HgN/A
8:30 PM52 °FSunny.15 mph50%29.95 "Hg10 mi
8:00 PM55 °FSunny.9 mph38%29.92 "Hg10 mi
7:30 PM55 °FSunny.10 mph41%29.92 "Hg10 mi
7:00 PM55 °FSunny.12 mph41%29.89 "Hg10 mi
6:30 PM55 °FSunny.14 mph41%29.89 "Hg10 mi
6:00 PM59 °FSunny.9 mph39%29.89 "Hg10 mi
5:30 PM57 °FSunny.14 mph39%29.89 "Hg10 mi
5:00 PM59 °FSunny.14 mph36%29.89 "Hg10 mi
4:30 PM57 °FSunny.12 mph39%29.89 "Hg10 mi
4:00 PM57 °FSunny.10 mph39%29.89 "Hg10 mi
3:30 PM57 °FPassing clouds.12 mph39%29.92 "HgN/A
3:00 PM59 °FPassing clouds.13 mph36%29.92 "HgN/A
2:30 PM57 °FPassing clouds.9 mph36%29.92 "HgN/A
2:00 PM59 °FPassing clouds.9 mph39%29.92 "HgN/A
1:30 PM57 °FPassing clouds.8 mph44%29.95 "HgN/A
1:00 PM55 °FPassing clouds.7 mph47%29.95 "HgN/A
12:30 PM54 °FSunny.5 mph54%29.98 "Hg10 mi
12:00 PM52 °FPassing clouds.7 mph54%29.98 "HgN/A
11:30 AM50 °FSunny.8 mph58%29.98 "Hg10 mi
11:00 AM50 °FPassing clouds.8 mph54%29.98 "HgN/A
10:30 AM48 °FSunny.9 mph54%30.01 "Hg10 mi
10:00 AM46 °FSunny.8 mph57%30.01 "Hg10 mi
9:30 AM45 °FPassing clouds.8 mph61%30.01 "HgN/A
9:00 AM43 °FSunny.9 mph66%30.01 "Hg10 mi
8:30 AM41 °FSunny.10 mph70%30.01 "Hg10 mi
8:00 AM39 °FSunny.8 mph75%30.01 "Hg10 mi
7:30 AM36 °FClear.7 mph81%30.04 "Hg10 mi
6:30 AM36 °FPassing clouds.9 mph75%30.04 "HgN/A
6:00 AM36 °FPassing clouds.7 mph81%30.04 "HgN/A
5:30 AM37 °FPassing clouds.8 mph75%30.04 "HgN/A
5:00 AM36 °FPassing clouds.8 mph81%30.04 "HgN/A
Weather by CustomWeather, © 2015

See weather overviewHow to use our weather pages